Tracking 18794 objects as of 21-September-2017
HD Live streaming from Space Station
objects crossing your sky now

NADEZHDA 5

Track NADEZHDA 5 now!
10-day predictions
NADEZHDA 5 is classified as:


NORAD ID: 25567
Int'l Code: 1998-072A
Perigee: 981.8 km
Apogee: 1,018.5 km
Inclination: 82.9 °
Period: 105.0 minutes
Semi major axis: 7371 km
RCS: 2.009 m2 (large)
Launch date: December 10, 1998
Source: Commonwealth of Independent States (former USSR) (CIS)
Launch site: PLESETSK MISSILE AND SPACE COMPLEX (PKMTR)

Out of service
aabbcc
Your satellite tracking list
Your tracking list is empty





NASA's NSSDC Master Catalog

Two Line Element Set (TLE):
1 25567U 98072A   17264.60170383 +.00000021 +00000-0 +63758-5 0  9996
2 25567 082.9440 277.4167 0024945 324.7515 153.8243 13.71826376940204
Source of the keplerian elements: AFSPC